FW7611 Weather Reports


time (UTC)temp
C
wind
direction
speed
KPH
gust
KPH
rain 1hr
cm
rain 24hr
cm
rain mn
cm
humidity
%
barometer
mb
20260510201543 27 206 3.2 8.0 0.00 0.00 0.00 30 1016.0
20260510200037 27 308 1.6 4.8 0.00 0.00 0.00 29 1016.2
20260510194537 27 200 1.6 8.0 0.00 0.00 0.00 26 1016.4
20260510193045 26 0 1.6 6.4 0.00 0.00 0.00 28 1016.6
20260510191541 26 280 1.6 11.3 0.00 0.00 0.00 28 1016.6
20260510190044 27 216 1.6 11.3 0.00 0.00 0.00 30 1016.7
20260510184542 27 254 0.0 8.0 0.00 0.00 0.00 29 1016.6
20260510183041 27 258 1.6 8.0 0.00 0.00 0.00 29 1016.8
20260510181534 27 285 1.6 6.4 0.00 0.00 0.00 28 1016.8
20260510180041 27 293 1.6 8.0 0.00 0.00 0.00 28 1016.8
20260510174540 27 298 1.6 12.9 0.00 0.00 0.00 30 1017.2
20260510173043 27 315 3.2 8.0 0.00 0.00 0.00 28 1017.5
20260510171536 26 222 1.6 9.7 0.00 0.00 0.00 32 1017.5
20260510170045 26 112 1.6 6.4 0.00 0.00 0.00 31 1017.5
20260510164544 26 301 1.6 4.8 0.00 0.00 0.00 28 1017.6
20260510163041 26 163 3.2 6.4 0.00 0.00 0.00 31 1017.8
20260510161540 25 0 1.6 4.8 0.00 0.00 0.00 34 1017.7
20260510160039 25 303 1.6 4.8 0.00 0.00 0.00 37 1017.8
20260510154544 24 33 0.0 3.2 0.00 0.00 0.00 42 1017.9
20260510153036 25 300 1.6 4.8 0.00 0.00 0.00 41 1018.1
20260510151544 24 28 0.0 3.2 0.00 0.00 0.00 43 1018.1
20260510150048 23 330 1.6 4.8 0.00 0.00 0.00 43 1018.1
20260510144557 23 0 0.0 3.2 0.00 0.00 0.00 49 1018.0
20260510143037 22 360 0.0 3.2 0.00 0.00 0.00 55 1017.9
20260510141540 22 268 0.0 3.2 0.00 0.00 0.00 57 1018.0
20260510140038 21 352 0.0 3.2 0.00 0.00 0.00 62 1018.2
20260510134558 19 118 0.0 3.2 0.00 0.00 0.00 67 1018.1
20260510133040 18 0 0.0 3.2 0.00 0.00 0.00 66 1017.9
20260510131540 18 300 0.0 3.2 0.00 0.00 0.00 72 1018.0
20260510130040 17 260 0.0 3.2 0.00 0.00 0.00 76 1017.9
20260510124538 16 0 0.0 3.2 0.00 0.00 0.00 81 1017.9
20260510123041 15 0 0.0 3.2 0.00 0.00 0.00 83 1017.8
20260510121541 15 0 0.0 3.2 0.00 0.00 0.00 84 1017.6
20260510120040 13 318 0.0 3.2 0.00 0.00 0.00 89 1017.4
20260510114540 13 0 0.0 3.2 0.00 0.00 0.00 91 1016.8
20260510113037 12 0 0.0 3.2 0.00 0.00 0.00 92 1016.7
20260510111546 12 0 0.0 3.2 0.00 0.00 0.00 93 1016.5
20260510110041 12 0 0.0 3.2 0.00 0.00 0.00 93 1016.1
20260510104554 12 0 0.0 3.2 0.00 0.00 0.00 94 1016.1
20260510103043 12 0 0.0 3.2 0.00 0.00 0.00 94 1015.6
20260510101540 12 0 0.0 3.2 0.00 0.00 0.00 94 1015.2
20260510100036 12 0 0.0 3.2 0.00 0.00 0.00 94 1015.1
20260510094543 12 0 0.0 3.2 0.00 0.00 0.00 94 1015.1
20260510093040 12 0 0.0 3.2 0.00 0.00 0.00 94 1015.0
20260510091541 13 0 0.0 3.2 0.00 0.00 0.00 94 1014.9
20260510090043 13 0 0.0 0.0 0.00 0.00 0.00 94 1014.9
20260510084539 13 0 0.0 3.2 0.00 0.00 0.00 94 1014.6
20260510083035 13 0 0.0 0.0 0.00 0.00 0.00 94 1014.6
20260510081558 13 0 0.0 0.0 0.00 0.00 0.00 94 1014.5
20260510080042 13 0 0.0 0.0 0.00 0.00 0.00 94 1014.4
20260510074541 13 0 0.0 0.0 0.00 0.00 0.00 94 1014.2
20260510073040 13 0 0.0 3.2 0.00 0.00 0.00 94 1014.2
20260510071537 13 0 0.0 0.0 0.00 0.00 0.00 94 1014.1
20260510070047 13 0 0.0 0.0 0.00 0.00 0.00 93 1014.0
20260510064535 14 0 0.0 3.2 0.00 0.00 0.00 93 1013.9
20260510063041 14 0 1.6 3.2 0.00 0.00 0.00 93 1014.1
20260510061540 14 0 0.0 0.0 0.00 0.00 0.00 93 1014.1
20260510060049 14 0 0.0 0.0 0.00 0.00 0.00 92 1014.2
20260510054537 15 0 0.0 0.0 0.00 0.00 0.00 92 1014.1
20260510053036 15 0 0.0 0.0 0.00 0.00 0.00 92 1014.1
20260510051601 15 0 0.0 0.0 0.00 0.00 0.00 91 1014.4
20260510050040 15 0 0.0 0.0 0.00 0.00 0.00 91 1014.3
20260510044543 15 0 0.0 0.0 0.00 0.00 0.00 90 1014.3
20260510043049 15 0 0.0 0.0 0.00 0.00 0.00 90 1014.2
20260510041537 15 0 0.0 0.0 0.00 0.00 0.00 89 1014.3
20260510040046 16 0 0.0 0.0 0.00 0.00 0.00 88 1014.2
20260510034545 16 0 0.0 0.0 0.00 0.00 0.00 87 1014.2
20260510033041 16 0 0.0 0.0 0.00 0.00 0.00 86 1014.2
20260510031608 16 0 0.0 0.0 0.00 0.00 0.00 85 1014.3
20260510030038 17 0 0.0 0.0 0.00 0.00 0.00 84 1014.4
20260510024538 17 0 0.0 0.0 0.00 0.00 0.00 83 1014.1
20260510023051 17 0 0.0 0.0 0.00 0.00 0.00 82 1014.1
20260510021544 18 0 0.0 3.2 0.00 0.00 0.00 80 1013.8
20260510020042 18 217 0.0 3.2 0.00 0.00 0.00 79 1013.6
20260510014541 18 0 0.0 3.2 0.00 0.00 0.00 77 1013.8
20260510013038 19 199 0.0 3.2 0.00 0.00 0.00 76 1013.4
20260510011543 19 222 0.0 3.2 0.00 0.00 0.00 74 1013.2
20260510010037 20 206 0.0 4.8 0.00 0.00 0.00 74 1012.8
20260510004542 20 240 3.2 14.5 0.00 0.00 0.00 72 1012.5
20260510003041 20 202 0.0 3.2 0.00 0.00 0.00 71 1012.1
20260510001540 20 222 0.0 3.2 0.00 0.00 0.00 70 1012.2
20260510000037 21 0 0.0 4.8 0.00 0.00 0.00 68 1012.0
20260509234536 21 202 0.0 6.4 0.00 0.00 0.00 68 1012.1
20260509233041 21 220 1.6 6.4 0.00 0.00 0.00 66 1011.9
20260509231546 21 262 3.2 8.0 0.00 0.00 0.00 65 1011.5
20260509230040 21 269 1.6 8.0 0.00 0.00 0.00 65 1011.5
20260509224537 21 222 1.6 9.7 0.00 0.00 0.00 63 1011.2
20260509223040 22 275 1.6 9.7 0.00 0.00 0.00 62 1011.0
20260509221539 22 313 1.6 3.2 0.00 0.00 0.00 62 1011.2
20260509220038 22 240 1.6 8.0 0.00 0.00 0.00 62 1011.1
20260509214536 22 192 1.6 11.3 0.00 0.00 0.00 60 1011.1
20260509213057 22 242 3.2 16.1 0.00 0.00 0.00 58 1011.1
20260509211606 22 253 1.6 6.4 0.00 0.00 0.00 59 1011.0
20260509210040 23 274 3.2 9.7 0.00 0.00 0.00 59 1010.8
20260509204544 22 205 4.8 11.3 0.00 0.00 0.00 58 1010.7
20260509203042 22 241 3.2 16.1 0.00 0.00 0.00 62 1010.9